Location: Veytaux
(46.4185°N, 6.9320°E)
Time: 08:49:34
(UTC+00:00)

Meteor 1-28 Rocket - Pass Details

Date: 27 May 2022
Orbit: 499 x 518 km, 97.4° (Epoch: 01 July)

Event Time Altitude Azimuth Distance (km) Brightness Sun altitude
Exits shadow 01:47:35 19° 165° (SSE) 1,281 4.8 -15.4°
Maximum altitude 01:50:14 87° 76° (ENE) 518 3.1 -15.2°
Drops below altitude 10° 01:53:58 10° 348° (NNW) 1,735 6.5 -14.8°
Sets 01:56:04 0° 348° (NNW) 2,623 7.5 -14.6°
